Location: Milton
(43.5183°N, 79.8775°W)
Time: 06:36:21
(UTC+00:00)

N. Korean satellite - Pass Details

Date: 10 December 2022
Orbit: 407 x 444 km, 97.3° (Epoch: 28 January)

Event Time Altitude Azimuth Distance (km) Brightness Sun altitude
Rises 22:32:44 0° 197° (SSW) 2,465 10.8 -8.8°
Reaches altitude 10° 22:35:05 10° 213° (SSW) 1,604 10.1 -9.2°
Maximum altitude 22:37:48 22° 265° (W) 1,080 9.4 -9.7°
Drops below altitude 10° 22:40:33 10° 318° (NW) 1,627 9.5 -10.1°
Sets 22:42:58 0° 334° (NNW) 2,511 10.2 -10.5°
